Regional Weather Roundup
Issued by NWS Charleston, SC

Current Version | Previous Version | Text Only | Print | Product List | Glossary Off
Versions: 1 2 3 4 5 6 7 8 9 10 11 12 13 14 15 16 17 18 19 20 21 22 23 24 25 26 27 28 29 30 31 32 33 34 35 36 37 38 39 40 41 42 43 44 45 46 47 48 49 50

000
ASUS42 KCHS 240710
RWRCHS
REGIONAL WEATHER ROUNDUP
NATIONAL WEATHER SERVICE CHARLESTON SC
300 AM EDT FRI OCT 24 2014

NOTE: "FAIR" INDICATES FEW OR NO CLOUDS BELOW 12,000 FEET WITH NO
SIGNIFICANT WEATHER AND/OR OBSTRUCTIONS TO VISIBILITY.

NOT ALL STATIONS ARE QUALITY CONTROLLED BY THE NATIONAL
WEATHER SERVICE. USE DATA WITH CAUTION...ESPECIALLY
DEWPOINT OBSERVATIONS.

SCZ027-030-031-034>040-042>050-240800-
...SOUTH CAROLINA...

CITY           SKY/WX    TMP DP  RH WIND       PRES   REMARKS
N CHARLESTON   PTCLDY    51  46  83 CALM      30.01F
WATERFRONT PRK   N/A     57 N/A N/A NW5         N/A
FORT JOHNSON   NOT AVBL
JOHNS ISLAND   SUNNY     52  48  87 CALM      30.01F
PINOPOLIS      NOT AVBL
MONCKS CORNER  FAIR      48  48 100 CALM      30.01F
SUMMERVILLE    FAIR      45  45 100 CALM      30.02F
BEAUFORT MCAS  MOCLDY    50  47  89 W3        30.02S
BEAUFORT ARPT  FAIR      54  54 100 CALM      30.01S
HILTON HEAD IS NOT AVBL
GEORGETOWN     NOT AVBL
WALTERBORO     PTSUNNY   45 N/A N/A CALM      30.02F
ORANGEBURG     CLOUDY    50  45  83 CALM      30.02F
BARNWELL       FAIR      45  43  93 CALM      30.02F
AIKEN          FAIR      46  45  93 CALM      30.05F
MANNING        FAIR      46 N/A N/A N5        30.03S
KINGSTREE      NOT AVBL
COLUMBIA       MOCLDY    47  43  86 CALM      30.02F
SUMTER         MOCLDY    51  44  78 NE6       30.02F
FLORENCE       CLEAR     49  43  80 NW5       30.03S
MYRTLE BEACH   CLEAR     52  45  76 NW5       30.01S
N MYRTLE BEACH CLEAR     49  44  83 CALM      30.00F

$$

GAZ063-065-086>088-099>101-113>116-118-119-134-136>141-150-240800-
...GEORGIA...

CITY           SKY/WX    TMP DP  RH WIND       PRES   REMARKS
SAVANNAH ARPT  MOCLDY    52  48  86 CALM      30.02F
HUNTER AAF     MOCLDY    48  46  93 W7        30.00F
FORT STEWART   MOCLDY    47  44  92 CALM      30.01F
STATESBORO     NOT AVBL
SYLVANIA       PTSUNNY   49  48  97 CALM      30.03S
CLAXTON        FAIR      45  45 100 CALM      30.03F
THOMSON        CLOUDY    47  47 100 CALM      30.07F
AUGUSTA-BUSH   MOCLDY    45  42  89 CALM      30.03F
AUGUSTA-DANIEL MOCLDY    54  46  74 CALM      30.03F
SWAINSBORO     FAIR      46  46 100 MISG      30.04R
VIDALIA        MOCLDY    50  46  87 CALM      30.03F
ALMA           MOCLDY    47  45  93 CALM      30.02F
WAYCROSS       FAIR      51  49  95 CALM      30.02F
JESUP          FAIR      45  45 100 CALM      30.03S
BRUNSWICK        N/A     48  46  93 CALM      30.03S
SAINT SIMONS   CLEAR     52  51  97 CALM      30.02S

$$

SCZ027-028-034-036>038-045-046-048>050-GAZ119-141-240800-
...LAKE AND SUPPLEMENTAL COASTAL OBSERVATIONS...

STATION/POSITION TIME  TEMP    WIND        PRES    WAVE   SWELL
                       AIR SEA DIR/SP/G            HT/PER HT/PER/DIR
                 (UTC) (F)     (DEG/KT/KT) (MB)    (FT/S) (FT/S/D)
UPR LAKE MARION  NOT AVBL
WINYAH BAY       0600   53     300/  4     1016.0S
LAKE MURRAY      0600   56     290/  2/  4 1016.6S
ACE BASIN NERRS  0600   51        CALM     1016.0S
FORT PULASKI     0700   60     320/  5/  6 1016.4F
SAPELO ISLAND    NOT AVBL

$$

ANZ835-935-AMZ111-154-330-350-352-354-374-450-454-472-240800-
...C-MAN AND BUOY OBSERVATIONS...

STATION/POSITION TIME  TEMP    WIND        PRES    WAVE   SWELL
                       AIR SEA DIR/SP/G            HT/PER HT/PER/DIR
                 (UTC) (F)     (DEG/KT/KT) (MB)    (FT/S) (FT/S/D)
FOLLY BEACH CMAN 0600   55     310/  4/  5 1016.9F
BUOY 41004       0700   68 78  340/ 10/ 14 1015.6F   3/11   2/11
BUOY 41008       0700   68 75   20/  8/ 12 1016.1F   2/ 8   2/110/ 8
5E ST. MARYS GA  0700      75                N/A     2/10
FRYING PAN BUOY  0700   66 74  330/ 14/ 17 1016.1F   3/12   2/100/12
BUOY 41025       0700   64     320/ 19/ 21 1013.7F   4/ 7
CAPE LOOKOUT NC  0600   60     340/ 10/ 11 1014.7F
BUOY 41002       0644   72 78  310/ 14/ 16 1014.4F   6/10   5/ 10/10
BUOY 41010       0700   74 81   30/  8/ 12 1014.7F   3/ 8   3/ 40/ 8
BUOY 41012       NOT AVBL
ST AUGUSTINE FL  0700   69      40/  6/  8 1016.3F
CAPERS NEARSHORE NOT AVBL
FRIPP NEARSHORE  NOT AVBL


$$



USA.gov is the U.S. government's official web portal to all federal, state and local government web resources and services.